Location: Gorze? G�rny
(49.8500°N, 19.5000°E)
Time: 04:35:53
(UTC+00:00)

CZ-4B DEB - Pass Details

Date: 13 May 2021
Orbit: 408 x 414 km, 97.3° (Epoch: 20 June)

Event Time Altitude Azimuth Distance (km) Brightness Sun altitude
Exits shadow 20:37:29 40° 182° (S) 640 4.7 -16.5°
Maximum altitude 20:38:31 74° 257° (WSW) 445 4.3 -16.6°
Drops below altitude 10° 20:41:46 10° 344° (NNW) 1,520 8.3 -16.9°
Sets 20:43:47 0° 346° (NNW) 2,390 9.6 -17.0°
